WX5II-2 Weather Reports


Display with metric or nautical units.
time (UTC)temp
F
wind
direction
speed
MPH
gust
MPH
rain 1hr
in
rain 24hr
in
rain mn
in
humidity
%
barometer
mb
20260901205346 101 351 9.0 11.0 0.00 0.00 0.00 18 1011.4
20260901204322 101 351 10.0 10.0 0.00 0.00 0.00 18 1011.4
20260901202234 101 351 10.0 11.0 0.00 0.00 0.00 18 1011.4
20260901201210 100 351 10.0 11.0 0.00 0.00 0.00 19 1012.4
20260901200146 100 351 5.0 11.0 0.00 0.00 0.00 19 1012.4
20260901195122 100 351 9.0 11.0 0.00 0.00 0.00 20 1012.4
20260901194058 100 351 9.0 13.0 0.00 0.00 0.00 20 1012.4
20260901193034 100 351 6.0 16.0 0.00 0.00 0.00 20 1012.4
20260901192010 99 351 9.0 13.0 0.00 0.00 0.00 21 1012.4
20260901190946 99 351 9.0 13.0 0.00 0.00 0.00 22 1012.4
20260901185922 99 351 5.0 11.0 0.00 0.00 0.00 23 1012.4
20260901184853 98 351 10.0 12.0 0.00 0.00 0.00 25 1012.4
20260901183815 99 351 6.0 13.0 0.00 0.00 0.00 25 1013.4
20260901182752 98 351 7.0 13.0 0.00 0.00 0.00 25 1013.4
20260901181726 97 351 7.0 11.0 0.00 0.00 0.00 25 1013.4
20260901180658 97 351 7.0 12.0 0.00 0.00 0.00 26 1013.4
20260901175634 96 351 7.0 11.0 0.00 0.00 0.00 26 1014.4
20260901174611 96 351 6.0 12.0 0.00 0.00 0.00 27 1014.4
20260901173546 96 351 6.0 12.0 0.00 0.00 0.00 28 1014.4
20260901172523 95 351 8.0 13.0 0.00 0.00 0.00 28 1014.4
20260901170434 94 351 9.0 12.0 0.00 0.00 0.00 29 1014.4
20260901165411 93 351 6.0 8.0 0.00 0.00 0.00 32 1014.4
20260901164347 93 351 7.0 10.0 0.00 0.00 0.00 33 1014.4
20260901163323 92 351 9.0 11.0 0.00 0.00 0.00 35 1014.4
20260901162259 91 351 11.0 9.0 0.00 0.00 0.00 36 1014.4
20260901161235 90 351 8.0 10.0 0.00 0.00 0.00 37 1015.4
20260901160212 90 351 5.0 12.0 0.00 0.00 0.00 39 1015.4
20260901155148 89 351 7.0 13.0 0.00 0.00 0.00 38 1015.4
20260901154125 89 351 6.0 9.0 0.00 0.00 0.00 40 1015.4
20260901152028 87 351 6.0 11.0 0.00 0.00 0.00 44 1015.4
20260901151004 86 351 9.0 12.0 0.00 0.00 0.00 46 1015.4
20260901145935 85 351 6.0 9.0 0.00 0.00 0.00 51 1015.4
20260901144834 83 351 7.0 10.0 0.00 0.00 0.00 54 1015.4
20260901143810 83 351 7.0 10.0 0.00 0.00 0.00 58 1015.4
20260901142748 82 347 9.0 13.0 0.00 0.00 0.00 60 1016.4
20260901140700 80 351 8.0 12.0 0.00 0.00 0.00 67 1016.4
20260901135638 79 347 7.0 12.0 0.00 0.00 0.00 70 1016.4
20260901134611 78 347 7.0 10.0 0.00 0.00 0.00 74 1016.4
20260901133548 78 347 7.0 9.0 0.00 0.00 0.00 77 1016.4
20260901132524 76 347 7.0 9.0 0.00 0.00 0.00 79 1016.4
20260901131501 76 347 9.0 10.0 0.00 0.00 0.00 83 1016.4
20260901130439 75 347 9.0 10.0 0.00 0.00 0.00 84 1016.4
20260901125416 74 347 9.0 10.0 0.00 0.00 0.00 84 1016.4
20260901124353 74 347 8.0 12.0 0.00 0.00 0.00 83 1016.4
20260901122307 74 347 10.0 11.0 0.00 0.00 0.00 82 1016.4
20260901121244 74 347 9.0 11.0 0.00 0.00 0.00 80 1016.4
20260901120221 74 347 10.0 10.0 0.00 0.00 0.00 80 1016.4
20260901115158 74 347 9.0 11.0 0.00 0.00 0.00 78 1016.4
20260901114135 74 347 10.0 11.0 0.00 0.00 0.00 77 1016.4
20260901113112 74 351 10.0 11.0 0.00 0.00 0.00 76 1016.4
20260901112049 74 351 10.0 10.0 0.00 0.00 0.00 74 1016.4
20260901111026 74 351 9.0 10.0 0.00 0.00 0.00 73 1016.4
20260901110003 75 347 8.0 9.0 0.00 0.00 0.00 71 1016.4
20260901104940 75 351 8.0 10.0 0.00 0.00 0.00 71 1016.4
20260901103917 75 351 7.0 10.0 0.00 0.00 0.00 70 1016.4
20260901102854 75 351 9.0 11.0 0.00 0.00 0.00 70 1016.4
20260901101831 75 351 10.0 11.0 0.00 0.00 0.00 69 1016.4
20260901100808 75 351 9.0 10.0 0.00 0.00 0.00 69 1016.4
20260901095745 75 351 8.0 10.0 0.00 0.00 0.00 68 1016.4
20260901094722 76 351 9.0 10.0 0.00 0.00 0.00 66 1016.4
20260901093659 76 351 8.0 10.0 0.00 0.00 0.00 64 1016.4
20260901092636 76 351 8.0 9.0 0.00 0.00 0.00 61 1016.4
20260901091613 76 351 7.0 8.0 0.00 0.00 0.00 60 1016.4
20260901090550 77 351 7.0 8.0 0.00 0.00 0.00 58 1016.4
20260901085527 77 351 7.0 9.0 0.00 0.00 0.00 57 1016.4
20260901084511 78 351 6.0 7.0 0.00 0.00 0.00 55 1016.4
20260901084455 78 351 6.0 7.0 0.00 0.00 0.00 55 1016.4
20260901083143 78 351 5.0 7.0 0.00 0.00 0.00 53 1016.4
20260901081947 79 351 6.0 7.0 0.00 0.00 0.00 52 1016.4
20260901080851 79 351 6.0 7.0 0.00 0.00 0.00 51 1016.4
20260901075828 79 351 6.0 8.0 0.00 0.00 0.00 50 1016.4
20260901074805 80 351 5.0 7.0 0.00 0.00 0.00 48 1016.4
20260901073958 80 351 6.0 11.0 0.00 0.00 0.00 47 1015.4
20260901073742 80 351 6.0 11.0 0.00 0.00 0.00 47 1015.4
20260901072718 80 351 7.0 10.0 0.00 0.00 0.00 46 1015.4
20260901071654 81 351 8.0 11.0 0.00 0.00 0.00 45 1015.4
20260901070631 81 351 9.0 11.0 0.00 0.00 0.00 44 1015.4
20260901065608 81 351 11.0 15.0 0.00 0.00 0.00 44 1015.4
20260901064545 82 351 11.0 15.0 0.00 0.00 0.00 43 1015.4
20260901063521 82 351 10.0 13.0 0.00 0.00 0.00 42 1015.4
20260901062458 82 351 12.0 15.0 0.00 0.00 0.00 41 1015.4
20260901061435 83 351 12.0 16.0 0.00 0.00 0.00 41 1015.4
20260901060412 83 351 12.0 17.0 0.00 0.00 0.00 40 1015.4
20260901055349 83 351 13.0 18.0 0.00 0.00 0.00 39 1014.4
20260901054325 84 351 13.0 16.0 0.00 0.00 0.00 38 1014.4
20260901053302 84 351 15.0 16.0 0.00 0.00 0.00 37 1014.4
20260901052239 85 351 16.0 19.0 0.00 0.00 0.00 36 1014.4
20260901051216 85 351 16.0 23.0 0.00 0.00 0.00 35 1014.4
20260901050152 85 351 19.0 21.0 0.00 0.00 0.00 34 1014.4
20260901045129 86 351 17.0 19.0 0.00 0.00 0.00 34 1014.4
20260901044106 86 351 15.0 16.0 0.00 0.00 0.00 34 1014.4
20260901043043 86 351 11.0 18.0 0.00 0.00 0.00 33 1014.4
20260901042019 87 351 15.0 19.0 0.00 0.00 0.00 33 1013.4
20260901040957 87 351 14.0 19.0 0.00 0.00 0.00 32 1013.4
20260901035933 87 351 12.0 18.0 0.00 0.00 0.00 31 1013.4
20260901033847 87 351 11.0 18.0 0.00 0.00 0.00 30 1013.4
20260901032824 87 351 14.0 17.0 0.00 0.00 0.00 30 1013.4
20260901031757 87 351 11.0 11.0 0.00 0.00 0.00 30 1013.4
20260901030734 87 351 9.0 9.0 0.00 0.00 0.00 29 1013.4
20260901025710 87 351 8.0 10.0 0.00 0.00 0.00 29 1012.4
20260901024647 88 351 8.0 10.0 0.00 0.00 0.00 29 1012.4
20260901022600 88 351 9.0 11.0 0.00 0.00 0.00 29 1012.4
20260901021537 89 351 9.0 10.0 0.00 0.00 0.00 28 1012.4
20260901020513 89 351 8.0 10.0 0.00 0.00 0.00 28 1012.4
20260901015450 90 351 7.0 9.0 0.00 0.00 0.00 28 1012.4
20260901014426 90 351 7.0 9.0 0.00 0.00 0.00 27 1012.4
20260901013403 91 351 7.0 9.0 0.00 0.00 0.00 27 1012.4
20260901012339 92 351 8.0 8.0 0.00 0.00 0.00 26 1011.4
20260901011316 92 351 7.0 10.0 0.00 0.00 0.00 24 1011.4
20260901010252 93 351 7.0 10.0 0.00 0.00 0.00 24 1011.4
20260901005229 94 351 7.0 10.0 0.00 0.00 0.00 23 1011.4
20260901004205 94 351 9.0 12.0 0.00 0.00 0.00 22 1011.4
20260901003141 95 351 9.0 12.0 0.00 0.00 0.00 22 1011.4
20260901002118 95 351 10.0 13.0 0.00 0.00 0.00 21 1011.4
20260901001054 96 351 10.0 13.0 0.00 0.00 0.00 21 1010.4
20260901000030 96 351 10.0 15.0 0.00 0.00 0.00 21 1010.4
20260831235007 96 351 8.0 14.0 0.00 0.00 0.00 21 1010.4
20260831233943 97 351 12.0 15.0 0.00 0.00 0.00 20 1010.4
20260831232919 97 351 11.0 15.0 0.00 0.00 0.00 20 1010.4
20260831231855 98 351 11.0 15.0 0.00 0.00 0.00 19 1010.4
20260831230831 99 351 11.0 15.0 0.00 0.00 0.00 19 1010.4
20260831225808 99 351 10.0 18.0 0.00 0.00 0.00 19 1010.4
20260831223720 100 351 10.0 14.0 0.00 0.00 0.00 18 1010.4
20260831222656 100 351 11.0 12.0 0.00 0.00 0.00 18 1010.4
20260831221632 100 351 10.0 15.0 0.00 0.00 0.00 18 1010.4
20260831220608 100 351 12.0 14.0 0.00 0.00 0.00 18 1010.4
20260831215544 100 351 8.0 14.0 0.00 0.00 0.00 18 1010.4
20260831214520 101 351 9.0 13.0 0.00 0.00 0.00 18 1010.4
20260831213456 101 351 12.0 15.0 0.00 0.00 0.00 18 1010.4
20260831212432 101 351 8.0 10.0 0.00 0.00 0.00 18 1010.4
20260831211408 101 351 12.0 12.0 0.00 0.00 0.00 19 1011.4
20260831210344 101 351 5.0 12.0 0.00 0.00 0.00 19 1011.4